C/2019 JU6 ( ATLAS )

Japanese version
Home page
Updated on April 4, 2021

---------------------------------------------------------------------

* Profile

Discovery Date May 12 and 21, 2019
Magnitude 18.8 mag
Discoverer Asteroid Terrestrial-Impact Last Alert System (ATLAS) search program, Pan-STARRS 2 telescope (Haleakala)

* Pictures

* Orbital Elements

Epoch 2019 June 6.0 TT = JDT 2458640.5                                          
T 2019 May 31.87874 TT                                  Rudenko                 
q   2.0447806            (2000.0)            P               Q                  
z  +0.0034022      Peri.   94.87016     +0.23504657     -0.95230699             
 +/-0.0008306      Node    21.73387     -0.95960234     -0.25920735             
e   0.9930432      Incl.  148.29855     +0.15464948     -0.16100601             
From 71 observations 2019 May 12-June 4, mean residual 0".5.                    

* Magnitudes Graph

        m1 = 14.0 + 5 log d + 10.0 log r

---------------------------------------------------------------------

The orbital elements are published on M.P.E.C. 2021-F20.
The magnitudes graphs are made with Comet for Windows.

---------------------------------------------------------------------

Copyright(C) Seiichi Yoshida (comet@aerith.net). All rights reserved.